Stations météo

réclame
Mon MeteoGroup
Walney Island, Grande-Bretagne (3214): Température de l'air & dewpoint: 12.11.2018 04:00:00 - 18.11.2018 04:00:00 (GMT)Walney Island, Grande-Bretagne (3214): Température de l'air -20cm & Température de l'air -100cm: 12.11.2018 04:00:00 - 18.11.2018 04:00:00 (GMT)Walney Island, Grande-Bretagne (3214): Vitesse du vent & gusts: 12.11.2018 04:00:00 - 18.11.2018 04:00:00 (GMT)Walney Island, Grande-Bretagne (3214): Direction du vent: 12.11.2018 04:00:00 - 18.11.2018 04:00:00 (GMT)Walney Island, Grande-Bretagne (3214): reduced air pressure: 12.11.2018 04:00:00 - 18.11.2018 04:00:00 (GMT)Walney Island, Grande-Bretagne (3214): visibility: 12.11.2018 04:00:00 - 18.11.2018 04:00:00 (GMT)Walney Island, Grande-Bretagne (3214): Quantités de précipitations: 12.11.2018 04:00:00 - 18.11.2018 04:00:00 (GMT)
Date & Time tt [°C] td [°C] tt -20cm [°C] tt -100cm [°C] ff [km/h] ff [knt] fx [km/h] fx [knt] dd ppp [hPa] vv [km] rr [mm]
18.11.2018 04:00:00 7,3 4,2 - - 18 10 - - E 1029,9 28 -
18.11.2018 03:00:00 7,8 4,2 - - 21 11 - - E 1030,0 23 0,0
18.11.2018 02:00:00 7,4 4,4 - - 22 12 - - E 1029,7 20 0,0
18.11.2018 01:00:00 7,5 4,5 - - 26 14 52 28 E 1029,4 17 0,0
18.11.2018 00:00:00 7,7 4,6 - - 29 16 50 27 E 1028,9 15 0,0
17.11.2018 23:00:00 8,0 4,9 - - 34 18 61 33 E 1029,1 17 0,0
17.11.2018 22:00:00 8,4 5,0 - - 39 21 61 33 E 1028,7 18 0,0
17.11.2018 21:00:00 8,6 4,7 - - 34 18 52 28 E 1028,9 22 0,0
17.11.2018 20:00:00 8,7 4,7 - - 34 18 52 28 E 1028,3 24 0,0
17.11.2018 19:00:00 8,9 5,2 - - 26 14 - - E 1028,1 20 0,0
17.11.2018 18:00:00 9,5 4,6 - - 18 10 - - E 1028,0 24 0,0
17.11.2018 17:00:00 10,0 5,3 - - 22 12 - - E 1027,8 20 0,0
17.11.2018 16:00:00 10,0 5,9 - - 22 12 - - E 1027,8 14 0,0
17.11.2018 15:00:00 10,7 5,9 - - 28 15 48 26 E 1027,6 14 0,0
17.11.2018 14:00:00 11,0 6,2 - - 28 15 - - E 1027,5 11 0,0
17.11.2018 13:00:00 10,9 6,4 - - 28 15 - - E 1027,5 9 0,0
17.11.2018 12:00:00 10,3 5,8 - - 31 17 48 26 E 1027,5 10 0,0
17.11.2018 11:00:00 10,0 6,3 - - 18 10 - - E 1027,9 14 0,0
17.11.2018 10:00:00 8,7 6,2 - - 21 11 - - E 1027,9 12 0,0
17.11.2018 09:00:00 7,6 6,0 10,5 11,2 18 10 - - E 1027,8 10 0,0
17.11.2018 08:00:00 7,0 5,7 - - 16 9 - - E 1027,6 6 0,0
17.11.2018 07:00:00 7,4 5,9 - - 21 11 - - E 1027,3 7 0,0
17.11.2018 06:00:00 7,5 5,8 - - 21 11 - - E 1027,0 6 0,0
17.11.2018 05:00:00 7,7 6,1 - - 24 13 - - E 1026,6 9 0,0
17.11.2018 04:00:00 8,1 6,5 - - 18 10 - - E 1026,4 10 0,0
17.11.2018 03:00:00 8,8 7,2 - - 22 12 - - E 1026,4 13 0,0
17.11.2018 02:00:00 9,8 8,1 - - 22 12 - - E 1026,3 20 0,0
17.11.2018 01:00:00 10,6 9,0 - - 18 10 - - E 1026,3 12 0,0
17.11.2018 00:00:00 10,9 9,6 - - 16 9 - - E 1026,1 6 0,0
16.11.2018 23:00:00 11,1 9,6 - - 16 9 - - E 1025,7 7 0,0
16.11.2018 22:00:00 11,4 9,4 - - 21 11 - - E 1025,5 9 0,0
16.11.2018 21:00:00 11,4 9,4 - - 13 7 - - E 1025,2 8 0,0
16.11.2018 20:00:00 11,5 9,4 - - 15 8 - - E 1025,2 7 0,0
16.11.2018 19:00:00 11,8 9,5 - - 18 10 - - E 1025,4 8 0,0
16.11.2018 18:00:00 12,1 9,6 - - 21 11 - - E 1024,9 10 0,0
16.11.2018 17:00:00 12,4 9,6 - - 18 10 - - ESE 1024,5 12 0,0
16.11.2018 16:00:00 12,9 9,9 - - 21 11 - - ESE 1024,1 13 0,0
16.11.2018 15:00:00 12,9 10,1 - - 21 11 - - ESE 1024,0 14 0,0
16.11.2018 14:00:00 12,8 10,1 - - 18 10 - - ESE 1024,1 14 0,0
16.11.2018 13:00:00 12,8 10,1 - - 16 9 - - SE 1024,3 12 0,0
16.11.2018 12:00:00 12,9 10,1 - - 22 12 - - ESE 1024,3 15 0,0
16.11.2018 11:00:00 12,9 10,6 - - 16 9 - - ESE 1024,3 12 0,0
16.11.2018 10:00:00 12,3 11,0 - - 18 10 - - ESE 1024,0 7 0,0
16.11.2018 09:00:00 12,1 11,1 10,2 11,2 18 10 - - SE 1023,4 6 0,0
16.11.2018 08:00:00 11,9 11,1 - - 22 12 - - SE 1022,7 5 0,0
16.11.2018 07:00:00 11,2 10,8 - - 16 9 - - SE 1022,3 4,6 0,0
16.11.2018 06:00:00 11,2 10,9 - - 13 7 - - ESE 1021,6 3,8 0,0
16.11.2018 05:00:00 10,8 10,6 - - 11 6 - - ESE 1021,1 2,7 0,0
16.11.2018 04:00:00 10,8 10,5 - - 11 6 - - ESE 1020,8 3,2 0,0
16.11.2018 03:00:00 11,0 10,4 - - 11 6 - - ESE 1020,7 4,3 0,0
16.11.2018 02:00:00 11,1 10,3 - - 13 7 - - SE 1020,4 6 0,0
16.11.2018 01:00:00 11,0 10,1 - - 13 7 - - SE 1020,0 7 0,0
16.11.2018 00:00:00 10,7 9,6 - - 13 7 - - SE 1019,8 8 0,0
15.11.2018 23:00:00 10,3 9,2 - - 16 9 - - SE 1019,1 8 0,0
15.11.2018 22:00:00 10,3 9,1 - - 16 9 - - SE 1018,9 8 0,0
15.11.2018 21:00:00 10,0 8,8 - - 15 8 - - SE 1018,6 8 0,0
15.11.2018 20:00:00 11,1 9,5 - - 16 9 - - SSE 1018,3 10 0,0
15.11.2018 19:00:00 10,8 9,1 - - 21 11 - - SSE 1017,2 13 0,0
15.11.2018 18:00:00 11,2 9,2 - - 26 14 - - SE 1016,4 14 0,0
15.11.2018 17:00:00 11,2 9,2 - - 24 13 - - SE 1015,9 16 0,0
15.11.2018 16:00:00 11,1 9,2 - - 22 12 - - SE 1015,9 17 0,0
15.11.2018 15:00:00 11,9 9,6 - - 24 13 - - SE 1016,1 14 0,0
15.11.2018 14:00:00 12,1 9,6 - - 24 13 - - SSE 1016,3 13 0,0
15.11.2018 13:00:00 12,3 9,3 - - 22 12 - - SE 1016,1 16 0,0
15.11.2018 12:00:00 11,8 9,0 - - 26 14 - - SE 1016,2 15 0,0
15.11.2018 11:00:00 10,9 8,4 - - 22 12 - - SE 1016,6 25 0,0
15.11.2018 10:00:00 9,7 7,5 - - 22 12 - - ESE 1016,9 20 0,0
15.11.2018 09:00:00 8,8 7,0 10,2 11,2 22 12 - - ESE 1017,1 20 0,0
15.11.2018 08:00:00 8,2 6,5 - - 21 11 - - ESE 1017,0 26 0,0
15.11.2018 07:00:00 8,3 6,5 - - 18 10 - - ESE 1016,7 26 0,0
15.11.2018 06:00:00 8,3 6,6 - - 24 13 - - ESE 1016,6 30 0,0
15.11.2018 05:00:00 8,3 6,6 - - 22 12 - - ESE 1016,4 19 0,0
15.11.2018 04:00:00 8,4 6,6 - - 22 12 - - SE 1016,7 35 0,0
15.11.2018 03:00:00 8,4 7,0 - - 22 12 - - SE 1016,4 21 0,0
15.11.2018 02:00:00 8,7 7,1 - - 18 10 - - SE 1016,6 25 0,0
15.11.2018 01:00:00 8,8 7,2 - - 21 11 - - SE 1016,5 30 0,0
15.11.2018 00:00:00 9,5 7,4 - - 16 9 - - SE 1016,8 29 0,0
14.11.2018 23:00:00 10,0 7,8 - - 18 10 - - SE 1016,6 35 0,0
14.11.2018 22:00:00 10,4 8,0 - - 21 11 - - SE 1016,4 24 0,0
14.11.2018 21:00:00 10,7 8,1 - - 18 10 - - SE 1016,3 28 0,0
14.11.2018 20:00:00 10,3 8,0 - - 21 11 - - SE 1016,1 30 0,0
14.11.2018 19:00:00 11,0 8,0 - - 22 12 - - SSE 1015,9 22 0,0
14.11.2018 18:00:00 11,8 8,6 - - 22 12 - - SE 1015,4 28 0,0
14.11.2018 17:00:00 11,8 8,9 - - 21 11 - - SE 1015,3 30 0,0
14.11.2018 16:00:00 12,3 9,1 - - 18 10 - - SSE 1015,4 30 0,0
14.11.2018 15:00:00 12,0 9,8 - - 16 9 - - SSE 1015,5 17 0,0
14.11.2018 14:00:00 12,1 10,1 - - 16 9 - - SSE 1015,6 16 0,0
14.11.2018 13:00:00 11,7 10,0 - - 21 11 - - S 1015,4 16 0,0
14.11.2018 12:00:00 12,3 10,5 - - 24 13 - - S 1014,9 15 0,0
14.11.2018 11:00:00 12,1 10,6 - - 22 12 - - S 1014,6 20 0,0
14.11.2018 10:00:00 11,6 10,4 - - 18 10 - - S 1014,3 13 0,0
14.11.2018 09:00:00 11,7 10,3 10,2 11,2 22 12 - - S 1014,0 14 0,0
14.11.2018 08:00:00 11,4 10,5 - - 18 10 - - S 1013,8 11 0,4
14.11.2018 07:00:00 11,5 9,7 - - 28 15 - - S 1013,5 21 0,0
14.11.2018 06:00:00 10,8 9,1 - - 28 15 - - SSE 1013,1 17 0,0
14.11.2018 05:00:00 10,5 9,0 - - 28 15 46 25 SSE 1013,2 19 0,2
14.11.2018 04:00:00 9,9 9,2 - - 29 16 46 25 SSE 1013,3 4,4 1,8
14.11.2018 03:00:00 10,0 9,0 - - 28 15 - - SSE 1014,1 7 0,0
14.11.2018 02:00:00 10,6 8,6 - - 28 15 - - SSE 1015,2 13 0,0
14.11.2018 01:00:00 10,3 8,6 - - 24 13 - - SE 1015,7 16 0,2
14.11.2018 00:00:00 10,3 8,4 - - 26 14 - - SE 1016,4 17 0,0
13.11.2018 23:00:00 10,5 7,9 - - 26 14 - - SE 1016,8 29 0,0
13.11.2018 22:00:00 10,4 8,1 - - 24 13 - - SSE 1017,2 23 0,0
13.11.2018 21:00:00 10,4 8,3 - - 18 10 - - SSE 1017,7 20 0,0
13.11.2018 20:00:00 10,5 8,6 - - 22 12 - - SSE 1017,9 18 0,0
13.11.2018 19:00:00 10,6 8,7 - - 21 11 - - S 1017,9 17 0,0
13.11.2018 18:00:00 10,9 9,4 - - 22 12 - - S 1018,2 16 0,2
13.11.2018 17:00:00 10,6 9,3 - - 22 12 - - SSW 1017,9 14 0,0
13.11.2018 16:00:00 11,2 8,5 - - 16 9 - - SSW 1017,7 11 0,0
13.11.2018 15:00:00 11,4 7,9 - - 15 8 - - SW 1017,5 17 0,0
13.11.2018 14:00:00 12,0 8,3 - - 18 10 - - SW 1017,2 21 0,0
13.11.2018 13:00:00 12,2 8,3 - - 22 12 - - SW 1016,6 26 0,0
13.11.2018 12:00:00 12,1 8,4 - - 22 12 - - WSW 1016,2 14 0,0
13.11.2018 11:00:00 11,3 8,0 - - 21 11 - - WSW 1015,6 12 0,0
13.11.2018 10:00:00 10,9 7,5 - - 31 17 48 26 W 1014,5 15 0,0
13.11.2018 09:00:00 10,4 7,4 10,0 11,2 34 18 52 28 W 1013,4 19 0,0
13.11.2018 08:00:00 10,1 7,5 - - 37 20 57 31 W 1012,1 17 0,0
13.11.2018 07:00:00 10,2 7,6 - - 35 19 54 29 W 1010,6 17 0,0
13.11.2018 06:00:00 10,3 7,4 - - 39 21 55 30 W 1009,3 16 0,0
13.11.2018 05:00:00 10,4 7,9 - - 37 20 52 28 W 1008,0 12 0,0
13.11.2018 04:00:00 10,4 7,8 - - 39 21 59 32 W 1006,7 12 0,0
13.11.2018 03:00:00 10,2 8,0 - - 39 21 54 29 W 1005,6 17 0,0
13.11.2018 02:00:00 10,1 8,4 - - 31 17 50 27 WSW 1004,8 17 0,2
13.11.2018 01:00:00 9,6 8,5 - - 31 17 50 27 SW 1003,9 8 1,6
13.11.2018 00:00:00 9,8 8,6 - - 26 14 50 27 SW 1003,3 10 0,6
12.11.2018 23:00:00 9,1 8,5 - - 24 13 46 25 S 1002,7 15 6,0
12.11.2018 22:00:00 9,1 7,2 - - 28 15 46 25 S 1002,6 30 0,6
12.11.2018 21:00:00 9,5 7,4 - - 28 15 46 25 SSE 1002,7 23 0,0
12.11.2018 20:00:00 9,5 7,9 - - 26 14 - - SSE 1002,8 21 1,4
12.11.2018 19:00:00 9,6 8,3 - - 18 10 55 30 SSW 1003,1 5 1,6
12.11.2018 18:00:00 10,3 8,5 - - 24 13 46 25 S 1002,5 12 0,8
12.11.2018 17:00:00 9,9 7,9 - - 18 10 - - SSE 1002,3 16 0,0
12.11.2018 16:00:00 10,6 8,2 - - 18 10 - - S 1002,0 24 0,0
12.11.2018 15:00:00 10,3 8,7 - - 16 9 - - S 1002,0 17 0,2
12.11.2018 14:00:00 8,5 7,5 - - 28 15 57 31 SSW 1002,3 13 9,4
12.11.2018 13:00:00 11,0 8,2 - - 28 15 48 26 S 1002,1 19 0,0
12.11.2018 12:00:00 10,8 8,6 - - 34 18 48 26 SSE 1001,8 15 0,2
12.11.2018 11:00:00 10,6 8,4 - - 34 18 46 25 SSE 1002,0 21 0,2
12.11.2018 10:00:00 9,7 8,6 - - 26 14 - - SSE 1001,8 16 0,0
12.11.2018 09:00:00 8,9 7,5 10,2 11,4 26 14 - - SSE 1001,7 18 0,0
12.11.2018 08:00:00 8,7 7,7 - - 21 11 - - SSE 1001,3 24 0,0
12.11.2018 07:00:00 8,6 7,1 - - 29 16 - - SSE 1001,0 30 0,0
12.11.2018 06:00:00 8,5 7,2 - - 26 14 - - SSE 1000,7 19 0,2
12.11.2018 05:00:00 8,9 7,9 - - 28 15 - - SSE 1000,6 19 0,2
12.11.2018 04:00:00 9,0 8,0 - - 26 14 48 26 SSE 1000,0 12 1,2

tt = Température de l'air
td = dewpoint
tt -20cm = Température de l'air -20cm
tt -100cm = Température de l'air -100cm
ff = Vitesse du vent
fx = gusts
dd = Direction du vent
ppp = reduced air pressure
vv = visibility
rr = Quantités de précipitations

stations d'obs. à proximité